This is the latest recevied weather packets stored in our database for station/object AD0YN. If no packets are shown the sender has not sent any weather packets the latest 1 day(s).
| Time | Temp. | Humidity | Pressure | Rain* | Wind** | Luminosity | Snow |
|---|---|---|---|---|---|---|---|
| 1778001513 | 10.56° C | 76% | 1012.4 hPa | 0 mm | 0.89 m/s, 335° | 151 W/m² | - |
| 1778001211 | 10.56° C | 80% | 1012.2 hPa | 0 mm | 0.45 m/s, 246° | 222 W/m² | - |
| 1778000907 | 10.56° C | 81% | 1012.4 hPa | 0 mm | 0.89 m/s, 247° | 230 W/m² | - |
| 1778000604 | 10° C | 83% | 1012.8 hPa | 0 mm | 0.45 m/s, 308° | 237 W/m² | - |
| 1778000299 | 10° C | 84% | 1012.7 hPa | 0 mm | 0 m/s | 235 W/m² | - |
| 1777999995 | 10° C | 82% | 1012.9 hPa | 0 mm | 0.45 m/s, 301° | 200 W/m² | - |
| 1777999691 | 10° C | 77% | 1012.5 hPa | 0 mm | 0 m/s | 193 W/m² | - |
| 1777999388 | 9.44° C | 77% | 1012.1 hPa | 0 mm | 0.89 m/s, 197° | 159 W/m² | - |
| 1777999086 | 9.44° C | 81% | 1011.8 hPa | 0 mm | 1.79 m/s, 154° | 143 W/m² | - |
| 1777998784 | 10° C | 82% | 1012.5 hPa | 0 mm | 0.89 m/s, 171° | 108 W/m² | - |
| 1777998482 | 10° C | 82% | 1012.8 hPa | 0 mm | 0.89 m/s, 235° | 125 W/m² | - |
| 1777998178 | 10° C | 83% | 1012.6 hPa | 0 mm | 0.45 m/s, 236° | 144 W/m² | - |
| 1777997875 | 10° C | 83% | 1012.7 hPa | 0 mm | 0.89 m/s, 213° | 136 W/m² | - |
| 1777997573 | 10° C | 80% | 1012.4 hPa | 0 mm | 0.89 m/s, 182° | 147 W/m² | - |
| 1777997270 | 10° C | 85% | 1012.6 hPa | 0 mm | 0 m/s | 126 W/m² | - |
| 1777996968 | 10° C | 85% | 1012.5 hPa | 0 mm | 0 m/s | 106 W/m² | - |
| 1777996664 | 10° C | 87% | 1012.6 hPa | 0 mm | 0 m/s | 105 W/m² | - |
| 1777996360 | 10° C | 86% | 1012.6 hPa | 0 mm | 0 m/s | 114 W/m² | - |
| 1777996057 | 10° C | 86% | 1012.2 hPa | 0 mm | 0 m/s | 111 W/m² | - |
| 1777995753 | 9.44° C | 85% | 1012.1 hPa | 0 mm | 0 m/s | 112 W/m² | - |
| 1777995449 | 9.44° C | 86% | 1012.1 hPa | 0 mm | 0 m/s | 99 W/m² | - |
| 1777995147 | 9.44° C | 84% | 1012.1 hPa | 0 mm | 0 m/s | 96 W/m² | - |
| 1777994844 | 10° C | 86% | 1011.7 hPa | 1.27 mm | 0 m/s | 95 W/m² | - |
| 1777994540 | 9.44° C | 83% | 1011.7 hPa | 1.27 mm | 0 m/s | 80 W/m² | - |
| 1777994235 | 9.44° C | 79% | 1011.7 hPa | 1.78 mm | 0 m/s | 89 W/m² | - |
* Rain latest hour (hover to see other rain measurements)
** Current wind speed in m/s (hover to see current wind gust speed)